Regional Weather Roundup
Issued by NWS

Home | Current Version | Previous Version | Text Only | Print | Product List | Glossary Off
Versions: 1 2 3 4 5 6 7 8 9 10 11 12 13 14 15 16 17 18 19 20 21 22 23 24 25 26 27

000
ASUS45 KBOU 230707
RWRCO

WEATHER ROUNDUP FOR COLORADO
NATIONAL WEATHER SERVICE DENVER/BOULDER CO
100 AM MDT WED AUG 23 2017

NOTE: "FAIR" INDICATES FEW OR NO CLOUDS BELOW 12000 FEET WITH NO
SIGNIFICANT WEATHER AND/OR OBSTRUCTIONS TO VISIBILITY.

COZ001>005-013-030-031-230800-
...NORTHWEST COLORADO...

CITY           SKY/WX    TMP DP  RH WIND       PRES   REMARKS
CRAIG          FAIR      53  41  63 SE3       30.31R
HAYDEN         FAIR      58  41  53 SE5       30.34S
MEEKER         FAIR      54  46  74 NE3       30.33R
RABBIT EARS PA CLOUDY    52  34  50 SW5       30.61S
STEAMBOAT SPGS FAIR      58  42  54 CALM      30.36R
WALDEN         FAIR      50  37  62 SE8       30.44S
$$

COZ006>008-011-230800-
...WEST CENTRAL VALLEYS...

CITY           SKY/WX    TMP DP  RH WIND       PRES   REMARKS
GRAND JUNCTION FAIR      64  48  56 CALM      30.22S
MONTROSE       FAIR      60  47  61 SE7       30.32S
EAGLE          FAIR      57  41  55 CALM      30.38R
RIFLE          FAIR      60  43  53 SE3       30.28S
DELTA          FAIR      65  44  45 E5        30.28R
NUCLA          FAIR      61  46  59 E8        30.34R
$$

COZ017>023-064>068-230800-
...SOUTHWEST COLORADO...

CITY           SKY/WX    TMP DP  RH WIND       PRES   REMARKS
DURANGO        FAIR      60  43  53 N7        30.38R
CORTEZ         FAIR      55  50  83 CALM      30.30R
PAGOSA SPRINGS FAIR      51  49  91 CALM      30.46S
TELLURIDE      FAIR      50  44  80 SE5       30.55S
WOLF CREEK PAS FAIR      45  36  70 SW3       30.77S
$$

COZ009-010-012-014-032>034-037-058>063-230800-
...CENTRAL COLORADO...

CITY           SKY/WX    TMP DP  RH WIND       PRES   REMARKS
ASPEN          FAIR      53  42  66 SW7       30.43S
BUENA VISTA    MOCLDY    51  46  84 CALM      30.47S
COPPER MTN     FAIR      50  34  53 S13       30.72F
BERTHOUD PASS  FAIR      43  37  81 NW13      30.74S
COTTONWOOD PAS MOCLDY    54  41  62 SW12      30.58F
GUNNISON       FAIR      50  44  80 CALM      30.48S
KREMMLING      FAIR      64  41  42 S7        30.41S
LEADVILLE      MOCLDY    42  37  82 NE6       30.57F
SALIDA         FAIR      55  46  70 SW9       30.52F
SUNLIGHT       FAIR      46  34  61 S5        30.65S
WILKERSON PASS MOCLDY    45  36  70 W7        30.68F
$$

COZ069>075-230800-
...SAN LUIS VALLEY/SANGRE DE CRISTO MOUNTAINS...

CITY           SKY/WX    TMP DP  RH WIND       PRES   REMARKS
ALAMOSA        FAIR      53  50  89 S6        30.45F
DEL NORTE      FAIR      51  46  84 W8        30.48S
LA VETA PASS   NOT AVBL
SAGUACHE         N/A    N/A N/A N/A MISG        N/A
$$

COZ035-036-038>040-230800-
...NORTHERN COLORADO FRONT RANGE...

CITY           SKY/WX    TMP DP  RH WIND       PRES   REMARKS
DENVER INTL AP FAIR      65  46  50 S14       30.19F
DMNS CITY PARK   N/A     68  43  39 SE7       30.19S
AURORA         PTCLDY    66  49  55 S13       30.22F
FRONT RANGE AP FAIR      66  54  63 S13G21    30.22S
ERIE MUNI ARPT FAIR      60  47  61 CALM      30.23S
BOULDER MUN AP FAIR      64  45  48 W5        30.19S
CENTENNIAL     FAIR      66  43  43 S8        30.24S
BROOMFIELD     FAIR      66  43  42 NW3       30.22R
FORT COLLINS   FAIR      61  56  83 N7        30.18S
LONGMONT       FAIR      60  49  66 CALM      30.20S
$$

COZ041-046-047-076>085-087-088-230800-
...PIKES PEAK/PALMER DIVIDE AND SOUTHERN FOOTHILLS...

CITY           SKY/WX    TMP DP  RH WIND       PRES   REMARKS
COLO. SPRINGS  MOCLDY    61  50  67 E5        30.33F
A. F. ACADEMY  MOCLDY    58  50  74 S3        30.34S
SCHRIEVER AFB  MOCLDY    57  49  74 MISG      30.33F
CHEYENNE MTN   MOCLDY    59  52  78 CALM      30.31F
ELLICOTT       FAIR     N/A N/A N/A S13       30.31F
FALCON         FAIR      56  48  73 S8        30.37F
FORT CARSON    MOCLDY    56  51  81 CALM      30.30F
LIMON          FAIR      57  55  93 S7        30.28F
MONUMENT HILL  FAIR      55  46  71 S13       30.36F
CANON CITY     CLEAR     64  52  63 W7        30.26F
WALSENBURG     FAIR      55  50  82 S6        30.33S
TRINIDAD       FAIR      57  50  77 W6        30.32F
$$

COZ042>045-048>051-090-091-230800-
...NORTHEAST COLORADO...

CITY           SKY/WX    TMP DP  RH WIND       PRES   REMARKS
GREELEY ARPT   FAIR      58  54  86 N6        30.16S
AKRON          FAIR      63  53  70 S15       30.21S
BURLINGTON     FAIR      59  53  80 S12       30.24F
WRAY           FAIR      63  48  59 SE12      30.21F
YUMA           FAIR      59  45  58 S9        30.20F
STERLING       FAIR      64  55  72 S7        30.15F
HOLYOKE        FAIR      61  52  72 SE9       30.21S
FORT MORGAN    FAIR      61  54  75 SE9       30.17F
$$

COZ086-089-092>099-230800-
...SOUTHEAST COLORADO...

CITY           SKY/WX    TMP DP  RH WIND       PRES   REMARKS
PUEBLO         FAIR      60  51  72 E7        30.23F
LA JUNTA       FAIR      66  58  75 S8        30.24F
LAMAR          FAIR      64  56  75 S10       30.21F
SPRINGFIELD      N/A     57  57 100 S7        30.27F
$$




USA.gov is the U.S. government's official web portal to all federal, state and local government web resources and services.